When you browse on this site, cookies collect data to enhance your experience and personalize the content and advertising you see.
Visit our Privacy Policy to learn more. By continuing to use the site, you agree to this use of cookies and data.
  • In Spain
  • List of Countries
  • For 7 days
  • Water Temperature
  • Weather Map
  • Weather Widgets
  • user-avatar
    Login

    Hourly Weather Livingstone

    Today, 17 February, Monday

    Time Temperature Precipitation Wind Pressure Humidity
    00:00 +23°C° 0.3 mm 1 mps 682 mmHg 90%
    01:00 +21°C° 0.3 mm 0 mps 682 mmHg 91%
    02:00 +21°C° 0 mm 0 mps 682 mmHg 90%
    03:00 +21°C° 1.3 mm 0 mps 682 mmHg 92%
    04:00 +20°C° 1.3 mm 0 mps 682 mmHg 93%
    05:00 +20°C° 1.3 mm 0 mps 681 mmHg 95%
    06:00 +21°C° 0.2 mm 0 mps 682 mmHg 94%
    07:00 +22°C° 0.2 mm 0 mps 683 mmHg 92%
    08:00 +24°C° 0 mm 1 mps 683 mmHg 92%
    09:00 +26°C° 0.5 mm 1 mps 683 mmHg 85%
    10:00 +27°C° 0.5 mm 1 mps 683 mmHg 79%
    11:00 +29°C° 0.5 mm 1 mps 683 mmHg 73%
    12:00 +30°C° 1.3 mm 1 mps 683 mmHg 71%
    13:00 +30°C° 1.3 mm 1 mps 682 mmHg 70%
    14:00 +31°C° 0 mm 2 mps 682 mmHg 63%
    15:00 +30°C° 1.2 mm 1 mps 682 mmHg 66%
    16:00 +30°C° 1.2 mm 1 mps 681 mmHg 69%
    17:00 +29°C° 1.2 mm 1 mps 681 mmHg 72%
    18:00 +28°C° 0.6 mm 1 mps 681 mmHg 78%
    19:00 +26°C° 0.6 mm 1 mps 681 mmHg 84%
    20:00 +24°C° 0.6 mm 1 mps 681 mmHg 90%
    21:00 +24°C° 0.1 mm 1 mps 681 mmHg 91%
    22:00 +23°C° 0.1 mm 1 mps 682 mmHg 93%
    23:00 +23°C° 0.1 mm 1 mps 682 mmHg 94%

    Tomorrow, 18 February, Tuesday

    Time Temperature Precipitation Wind Pressure Humidity
    00:00 +23°C° 0.1 mm 1 mps 682 mmHg 94%
    01:00 +23°C° 0.1 mm 1 mps 682 mmHg 95%
    02:00 +22°C° 0.1 mm 1 mps 681 mmHg 95%
    03:00 +22°C° 0 mm 1 mps 681 mmHg 95%
    04:00 +22°C° 0 mm 1 mps 681 mmHg 95%
    05:00 +22°C° 0 mm 1 mps 681 mmHg 95%
    06:00 +23°C° 0.1 mm 1 mps 682 mmHg 94%
    07:00 +24°C° 0.1 mm 1 mps 683 mmHg 92%
    08:00 +24°C° 0.1 mm 1 mps 683 mmHg 90%
    09:00 +26°C° 0.8 mm 2 mps 683 mmHg 83%
    10:00 +28°C° 0.8 mm 2 mps 683 mmHg 77%
    11:00 +29°C° 0.8 mm 2 mps 683 mmHg 70%
    12:00 +30°C° 0.3 mm 2 mps 683 mmHg 66%
    13:00 +31°C° 0.3 mm 2 mps 683 mmHg 61%
    14:00 +32°C° 0.3 mm 2 mps 683 mmHg 56%
    15:00 +31°C° 1.3 mm 2 mps 682 mmHg 65%
    16:00 +29°C° 1.3 mm 2 mps 681 mmHg 73%
    17:00 +28°C° 1.3 mm 2 mps 680 mmHg 82%
    18:00 +27°C° 0.4 mm 2 mps 681 mmHg 85%
    19:00 +25°C° 0.4 mm 2 mps 681 mmHg 89%
    20:00 +24°C° 0.4 mm 2 mps 682 mmHg 92%
    21:00 +23°C° 0 mm 2 mps 682 mmHg 92%
    22:00 +23°C° 0 mm 2 mps 682 mmHg 91%
    23:00 +21°C° 0 mm 2 mps 682 mmHg 91%

    Day after tomorrow, 19 February, Wednesday

    Time Temperature Precipitation Wind Pressure Humidity
    00:00 +22°C° 0 mm 1 mps 682 mmHg 91%
    01:00 +21°C° 0 mm 1 mps 682 mmHg 92%
    02:00 +21°C° 0 mm 1 mps 681 mmHg 92%
    03:00 +21°C° 0 mm 1 mps 681 mmHg 93%
    04:00 +21°C° 0 mm 1 mps 681 mmHg 94%
    05:00 +20°C° 0 mm 2 mps 681 mmHg 95%
    06:00 +21°C° 0 mm 2 mps 682 mmHg 92%
    07:00 +22°C° 0 mm 3 mps 683 mmHg 90%
    08:00 +24°C° 0 mm 3 mps 683 mmHg 87%
    09:00 +26°C° 0.1 mm 3 mps 684 mmHg 80%
    10:00 +27°C° 0.1 mm 3 mps 684 mmHg 73%
    11:00 +29°C° 0.1 mm 4 mps 684 mmHg 66%
    12:00 +29°C° 0.5 mm 3 mps 683 mmHg 66%
    13:00 +30°C° 0.5 mm 3 mps 683 mmHg 66%
    14:00 +30°C° 0.5 mm 3 mps 682 mmHg 65%
    15:00 +30°C° 0.4 mm 3 mps 682 mmHg 66%
    16:00 +29°C° 0.4 mm 3 mps 681 mmHg 67%
    17:00 +29°C° 0.4 mm 3 mps 681 mmHg 68%
    18:00 +27°C° 0 mm 3 mps 681 mmHg 73%
    19:00 +26°C° 0 mm 2 mps 681 mmHg 77%
    20:00 +24°C° 0 mm 2 mps 681 mmHg 82%
    21:00 +23°C° 0 mm 2 mps 682 mmHg 83%
    22:00 +23°C° 0 mm 1 mps 682 mmHg 84%
    23:00 +22°C° 0 mm 1 mps 682 mmHg 85%

    20 February, Thursday

    Time Temperature Precipitation Wind Pressure Humidity
    00:00 +22°C° 0 mm 1 mps 682 mmHg 86%
    01:00 +21°C° 0 mm 1 mps 682 mmHg 88%
    02:00 +19°C° 0 mm 0 mps 681 mmHg 89%
    03:00 +21°C° 0 mm 1 mps 681 mmHg 90%
    04:00 +21°C° 0 mm 1 mps 681 mmHg 90%
    05:00 +20°C° 0 mm 1 mps 681 mmHg 91%
    06:00 +21°C° 0 mm 1 mps 682 mmHg 88%
    07:00 +23°C° 0 mm 2 mps 682 mmHg 85%
    08:00 +24°C° 0 mm 2 mps 683 mmHg 82%
    09:00 +26°C° 0 mm 2 mps 683 mmHg 75%
    10:00 +28°C° 0 mm 2 mps 683 mmHg 67%
    11:00 +30°C° 0 mm 3 mps 683 mmHg 60%
    12:00 +30°C° 0.1 mm 3 mps 683 mmHg 58%
    13:00 +31°C° 0.1 mm 3 mps 682 mmHg 56%
    14:00 +31°C° 0.1 mm 3 mps 682 mmHg 54%
    15:00 +31°C° 0.1 mm 2 mps 681 mmHg 57%
    16:00 +30°C° 0.1 mm 2 mps 681 mmHg 59%
    17:00 +30°C° 0.1 mm 2 mps 680 mmHg 62%
    18:00 +28°C° 0 mm 1 mps 680 mmHg 69%
    19:00 +26°C° 0 mm 1 mps 680 mmHg 76%
    20:00 +24°C° 0 mm 1 mps 680 mmHg 83%
    21:00 +24°C° 0 mm 1 mps 681 mmHg 85%
    22:00 +23°C° 0 mm 1 mps 681 mmHg 88%
    23:00 +23°C° 0 mm 1 mps 681 mmHg 90%

    21 February, Friday

    Time Temperature Precipitation Wind Pressure Humidity
    00:00 +22°C° 0 mm 1 mps 681 mmHg 91%
    01:00 +22°C° 0 mm 1 mps 681 mmHg 91%
    02:00 +22°C° 0 mm 1 mps 681 mmHg 91%
    03:00 +21°C° 0 mm 1 mps 681 mmHg 92%
    04:00 +21°C° 0 mm 1 mps 681 mmHg 93%
    05:00 +21°C° 0 mm 1 mps 681 mmHg 94%
    06:00 +22°C° 0 mm 1 mps 681 mmHg 90%
    07:00 +23°C° 0 mm 1 mps 682 mmHg 86%
    08:00 +25°C° 0 mm 1 mps 683 mmHg 82%
    15:00 +34°C° 0 mm 2 mps 681 mmHg 46%
    16:00 +32°C° 0 mm 2 mps 681 mmHg 49%
    17:00 +32°C° 0 mm 2 mps 680 mmHg 52%
    18:00 +30°C° 0 mm 1 mps 680 mmHg 60%
    19:00 +27°C° 0 mm 1 mps 680 mmHg 68%
    20:00 +25°C° 0 mm 1 mps 680 mmHg 77%
    21:00 +25°C° 0 mm 1 mps 681 mmHg 79%
    22:00 +24°C° 0 mm 1 mps 681 mmHg 82%
    23:00 +24°C° 0 mm 1 mps 681 mmHg 85%

    22 February, Saturday

    Time Temperature Precipitation Wind Pressure Humidity
    00:00 +23°C° 0 mm 1 mps 681 mmHg 86%
    01:00 +23°C° 0 mm 1 mps 680 mmHg 88%
    02:00 +20°C° 0 mm 0 mps 680 mmHg 89%
    03:00 +20°C° 0 mm 0 mps 680 mmHg 90%
    04:00 +20°C° 0 mm 0 mps 680 mmHg 90%
    05:00 +20°C° 0 mm 0 mps 680 mmHg 90%
    06:00 +23°C° 0 mm 1 mps 681 mmHg 86%
    07:00 +24°C° 0 mm 1 mps 682 mmHg 81%
    08:00 +25°C° 0 mm 1 mps 682 mmHg 77%
    09:00 +27°C° 0 mm 1 mps 683 mmHg 69%
    10:00 +29°C° 0 mm 2 mps 683 mmHg 62%
    11:00 +31°C° 0 mm 2 mps 683 mmHg 55%
    12:00 +32°C° 0 mm 2 mps 682 mmHg 52%
    13:00 +34°C° 0 mm 2 mps 682 mmHg 48%
    14:00 +35°C° 0 mm 2 mps 681 mmHg 45%
    15:00 +34°C° 0.1 mm 2 mps 681 mmHg 49%
    16:00 +32°C° 0.1 mm 2 mps 680 mmHg 53%
    17:00 +31°C° 0.1 mm 2 mps 680 mmHg 58%
    18:00 +29°C° 0.1 mm 2 mps 680 mmHg 64%
    19:00 +27°C° 0.1 mm 1 mps 680 mmHg 71%
    20:00 +25°C° 0.1 mm 1 mps 680 mmHg 78%
    21:00 +25°C° 0 mm 1 mps 680 mmHg 80%
    22:00 +24°C° 0 mm 1 mps 681 mmHg 82%
    23:00 +24°C° 0 mm 1 mps 681 mmHg 84%
    Show more